Location: Niles Junction
(37.5763°N, 121.9714°W)
Time: 03:34:00
(UTC+00:00)

SL-14 R/B - Pass Details

Date: 29 October 2020
Orbit: 518 x 555 km, 82.4° (Epoch: 23 November)

Event Time Altitude Azimuth Distance (km) Brightness Sun altitude
Exits shadow 13:02:42 31° 317° (NW) 976 4.2 -17.9°
Drops below altitude 10° 13:05:24 10° 350° (N) 1,833 5.8 -17.4°
Sets 13:07:42 0° 359° (N) 2,735 6.8 -16.9°
